Content
SEND FEEDBACK

Daily
Averages
Monthly
Summary
United States of America

COMSTOCK, NEBRASKA


Home > North America > United States > Nebraska
Elevation: 2260 feet     Latitude: 41 33N     Longitude: 099 15W

WEATHER
 
SELECT A DAY
Number of Records: 175,001;   Date Range: 1/1/95 - 12/18/14
 
SHARE

PRINT THIS DATA

[ ← Previous Day ]
WEATHER ALMANAC - JANUARY 31, 2013
[ Next Day → ]
[ °C ]   °F
Weather ElementAverageHighLow
Temperature8.1 °F12.9 °F (1:53 am)-0.9 °F (8:53 pm)
Dewpoint-1.8 °F7 °F (1:53 am)-8 °F (8:53 pm)
Humidity65.3 %81 % (2:53 am)44 % (3:53 pm)
Barometer30.28 in30.47 in (8:53 pm)30.02 in (1:53 am)
Wind Speed14 mph29.9 mph (10:18 am)
Wind Gust38 mph (10:18 am)
Weather ElementAverage
Visibility9.9 mi
Wind DirectionWNW (283 °)

Weather ElementTotal
Precipitation---
Heating Degree Days59 (Base 65)
Averaged from 27 records on January 31, 2013
WEATHER CONDITIONS BREAKOUT
WIND DIRECTION BREAKOUT
WEATHER BY HOUR - JANUARY 31, 2013
[ °C ]   °F
Local TimeTemperatureDewpointHumidityBarometerVisibilityWind DirectionWind SpeedGust SpeedPrecipitationEventsConditions
1:53 AM12.9 °F7.0 °F77 %30.02 in8.0 miNorth (350°)9.2 mph0.00 inSnowLight Snow
2:53 AM10.9 °F6.1 °F81 %30.04 in10.0 miNorth (350°)5.8 mphMostly Cloudy
3:53 AM10.9 °F6.1 °F81 %30.06 in10.0 miWNW (300°)6.9 mphMostly Cloudy
4:53 AM10.0 °F5.0 °F80 %30.09 in10.0 miNW (310°)9.2 mphScattered Clouds
5:53 AM10.9 °F5.0 °F77 %30.11 in10.0 miNNW (330°)8.1 mphOvercast
6:18 AM10.4 °F5.0 °F79 %30.02 in10.0 miNNW (330°)13.8 mph0.00 inOvercast
6:53 AM8.1 °F3.0 °F80 %30.17 in10.0 miNorth (360°)17.3 mph24.2 mph0.00 inOvercast
7:02 AM6.8 °F1.4 °F79 %30.05 in10.0 miNorth (350°)15.0 mphOvercast
7:53 AM6.1 °F-2.0 °F69 %30.22 in10.0 miNNW (330°)16.1 mphMostly Cloudy
8:53 AM6.1 °F-2.9 °F67 %30.27 in10.0 miNNW (330°)21.9 mph28.8 mphScattered Clouds
9:19 AM6.8 °F-2.2 °F67 %30.17 in10.0 miNNW (330°)19.6 mph28.8 mphMostly Cloudy
9:53 AM9.0 °F-0.9 °F64 %30.31 in10.0 miNW (320°)25.3 mph32.2 mphOvercast
10:18 AM8.6 °F-4.0 °F57 %30.21 in10.0 miNNW (340°)29.9 mph38.0 mphScattered Clouds
10:53 AM8.1 °F-4.0 °F58 %30.35 in10.0 miNW (320°)27.6 mph34.5 mphPartly Cloudy
11:53 AM10.0 °F-6.0 °F48 %30.37 in10.0 miNNW (340°)27.6 mph34.5 mphClear
12:53 PM10.0 °F-5.1 °F51 %30.38 in10.0 miNW (320°)25.3 mph32.2 mphClear
1:53 PM12.0 °F-5.1 °F46 %30.38 in10.0 miNW (320°)20.7 mph28.8 mphClear
2:53 PM10.9 °F-5.1 °F49 %30.38 in10.0 miNW (310°)19.6 mph27.6 mphClear
3:53 PM10.9 °F-7.1 °F44 %30.40 in10.0 miNW (320°)18.4 mph24.2 mphClear
4:53 PM10.9 °F-6.0 °F47 %30.41 in10.0 miNW (310°)12.7 mphClear
5:53 PM7.0 °F-7.1 °F53 %30.42 in10.0 miNW (320°)10.4 mphClear
6:53 PM6.1 °F-6.0 °F58 %30.42 in10.0 miNorth (350°)9.2 mphClear
7:53 PM1.9 °F-7.1 °F66 %30.45 in10.0 miCalmClear
8:53 PM-0.9 °F-8.0 °F72 %30.47 in10.0 miSSW (210°)3.5 mphClear
9:53 PM1.9 °F-4.0 °F76 %30.45 in10.0 miCalmOvercast
10:53 PM5.0 °F-2.9 °F70 %30.45 in10.0 miCalmOvercast
11:53 PM6.1 °F-2.9 °F67 %30.44 in10.0 miSouth (190°)5.8 mphOvercast
Hourly data recorded from KODX, located miles away from Comstock, Nebraska







STORIES FROM OUR PARTNERS